PICSAT (43132 NORAD) Tracking and Keplerian Element Data

This shows tracking and keplerian element data for the satellite.

Feedback or suggestion? Click here.




ElementValue
Catalog43132
NamePICSAT
Epoch Orbit4641
Epoch Day317.33603106
Epoch Year2018
RAAN20.3055
Inclination97.5173
Eccentricity0.0008434
Argument of Perigee301.6196
Mean Anonmoly58.4217
Mean Motion15.23019057
Decay Rate1.472E-05
L11 43132U 18004X 18317.33603106 .00001472 00000-0 65610-4 0 9994
L22 43132 97.5173 20.3055 0008434 301.6196 58.4217 15.23019057 46412

Live tracking and technical data element details for PICSAT (NORAD 43132). PICSAT can be tracked NOW for your location showing map with azimuth and elevation plus other details from your city location.

Track the satellite on the map from your city or location and see movement details for azimuth, elevation, latitude, longitude, range, height, and movement on the map or in text.







IsCatalogInMostPopularTable: catalog: 43132, numindb: 190
Update: records affected: 1



GetName: 43132 PICSAT

Hit Count: updated at: Wed, 14 Nov 2018 12:05:57 GMT